When you browse on this site, cookies collect data to enhance your experience and personalize the content and advertising you see.
Visit our Privacy Policy to learn more. By continuing to use the site, you agree to this use of cookies and data.
  • In Lithuania
  • List of Countries
  • For 7 days
  • Water Temperature
  • Weather Map
  • Weather Widgets
  • user-avatar
    Login

    Hourly Weather Chrudim

    Today, 20 September, Friday

    Time Temperature Precipitation Wind Pressure Humidity
    00:00 +7°C° 0 mm 1 mps 747 mmHg 83%
    01:00 +7°C° 0 mm 1 mps 748 mmHg 86%
    02:00 +6°C° 0 mm 1 mps 747 mmHg 87%
    03:00 +6°C° 0 mm 1 mps 747 mmHg 88%
    04:00 +6°C° 0 mm 1 mps 747 mmHg 89%
    05:00 +6°C° 0 mm 1 mps 747 mmHg 87%
    06:00 +7°C° 0 mm 1 mps 747 mmHg 85%
    07:00 +8°C° 0 mm 1 mps 747 mmHg 83%
    08:00 +9°C° 0 mm 1 mps 748 mmHg 76%
    09:00 +10°C° 0 mm 2 mps 748 mmHg 69%
    10:00 +13°C° 0 mm 2 mps 748 mmHg 61%
    11:00 +14°C° 0 mm 2 mps 747 mmHg 57%
    12:00 +15°C° 0 mm 2 mps 747 mmHg 53%
    13:00 +16°C° 0 mm 2 mps 747 mmHg 48%
    14:00 +16°C° 0 mm 2 mps 746 mmHg 49%
    15:00 +16°C° 0 mm 2 mps 746 mmHg 49%
    16:00 +16°C° 0 mm 2 mps 746 mmHg 49%
    17:00 +14°C° 0 mm 1 mps 746 mmHg 55%
    18:00 +12°C° 0 mm 1 mps 746 mmHg 62%
    19:00 +9°C° 0 mm 0 mps 746 mmHg 68%
    20:00 +9°C° 0 mm 0 mps 746 mmHg 70%
    21:00 +8°C° 0 mm 0 mps 746 mmHg 72%
    22:00 +8°C° 0 mm 0 mps 746 mmHg 74%
    23:00 +9°C° 0 mm 1 mps 746 mmHg 75%

    Tomorrow, 21 September, Saturday

    Time Temperature Precipitation Wind Pressure Humidity
    00:00 +8°C° 0 mm 1 mps 746 mmHg 76%
    01:00 +8°C° 0 mm 1 mps 746 mmHg 76%
    02:00 +8°C° 0 mm 1 mps 746 mmHg 77%
    03:00 +8°C° 0 mm 1 mps 745 mmHg 78%
    04:00 +7°C° 0 mm 1 mps 745 mmHg 79%
    05:00 +8°C° 0 mm 1 mps 745 mmHg 77%
    06:00 +9°C° 0 mm 1 mps 745 mmHg 75%
    07:00 +9°C° 0 mm 1 mps 745 mmHg 73%
    08:00 +11°C° 0 mm 1 mps 745 mmHg 66%
    09:00 +14°C° 0 mm 1 mps 745 mmHg 59%
    10:00 +16°C° 0 mm 2 mps 745 mmHg 51%
    11:00 +17°C° 0 mm 2 mps 744 mmHg 49%
    12:00 +18°C° 0 mm 2 mps 744 mmHg 47%
    13:00 +19°C° 0 mm 2 mps 744 mmHg 44%
    14:00 +19°C° 0 mm 2 mps 743 mmHg 45%
    15:00 +19°C° 0 mm 3 mps 743 mmHg 46%
    16:00 +19°C° 0 mm 3 mps 742 mmHg 47%
    17:00 +17°C° 0 mm 3 mps 742 mmHg 53%
    18:00 +15°C° 0 mm 2 mps 742 mmHg 58%
    19:00 +13°C° 0 mm 2 mps 742 mmHg 64%
    20:00 +12°C° 0 mm 2 mps 742 mmHg 64%
    21:00 +12°C° 0 mm 2 mps 742 mmHg 64%
    22:00 +10°C° 0 mm 2 mps 742 mmHg 64%
    23:00 +10°C° 0 mm 3 mps 741 mmHg 64%

    Day after tomorrow, 22 September, Sunday

    Time Temperature Precipitation Wind Pressure Humidity
    00:00 +10°C° 0 mm 3 mps 741 mmHg 63%
    01:00 +9°C° 0 mm 3 mps 741 mmHg 62%
    02:00 +9°C° 0 mm 3 mps 741 mmHg 62%
    03:00 +9°C° 0 mm 3 mps 740 mmHg 61%
    04:00 +9°C° 0 mm 3 mps 740 mmHg 61%
    05:00 +9°C° 0 mm 3 mps 740 mmHg 60%
    06:00 +10°C° 0 mm 4 mps 740 mmHg 60%
    07:00 +10°C° 0 mm 4 mps 740 mmHg 59%
    08:00 +12°C° 0 mm 4 mps 739 mmHg 53%
    09:00 +14°C° 0 mm 5 mps 739 mmHg 47%
    10:00 +17°C° 0 mm 6 mps 739 mmHg 41%
    11:00 +17°C° 0 mm 6 mps 739 mmHg 40%
    12:00 +19°C° 0 mm 6 mps 739 mmHg 39%
    13:00 +20°C° 0 mm 6 mps 738 mmHg 38%
    14:00 +20°C° 0 mm 5 mps 738 mmHg 40%
    15:00 +20°C° 0 mm 4 mps 737 mmHg 43%
    16:00 +19°C° 0 mm 4 mps 737 mmHg 45%
    17:00 +18°C° 0 mm 3 mps 737 mmHg 48%
    18:00 +16°C° 0 mm 3 mps 736 mmHg 52%
    19:00 +13°C° 0 mm 3 mps 736 mmHg 55%
    20:00 +13°C° 0 mm 3 mps 736 mmHg 54%
    21:00 +13°C° 0 mm 3 mps 736 mmHg 53%
    22:00 +13°C° 0 mm 3 mps 736 mmHg 52%
    23:00 +12°C° 0 mm 3 mps 735 mmHg 55%

    23 September, Monday

    Time Temperature Precipitation Wind Pressure Humidity
    00:00 +12°C° 0 mm 3 mps 735 mmHg 57%
    01:00 +12°C° 0 mm 2 mps 735 mmHg 59%
    02:00 +12°C° 0 mm 2 mps 734 mmHg 59%
    03:00 +12°C° 0 mm 2 mps 734 mmHg 59%
    04:00 +12°C° 0 mm 2 mps 734 mmHg 58%
    05:00 +12°C° 0 mm 1 mps 734 mmHg 60%
    06:00 +12°C° 0 mm 1 mps 734 mmHg 62%
    07:00 +13°C° 0 mm 1 mps 734 mmHg 63%
    08:00 +14°C° 0 mm 1 mps 734 mmHg 61%
    09:00 +16°C° 0 mm 1 mps 734 mmHg 59%
    10:00 +19°C° 0 mm 1 mps 734 mmHg 56%
    11:00 +20°C° 0 mm 1 mps 734 mmHg 54%
    12:00 +20°C° 0 mm 2 mps 734 mmHg 52%
    13:00 +21°C° 0 mm 2 mps 734 mmHg 50%
    14:00 +21°C° 0 mm 2 mps 734 mmHg 52%
    15:00 +20°C° 0 mm 3 mps 734 mmHg 54%
    16:00 +20°C° 0 mm 3 mps 734 mmHg 56%
    17:00 +19°C° 0 mm 3 mps 734 mmHg 62%
    18:00 +18°C° 0 mm 3 mps 734 mmHg 68%
    19:00 +16°C° 0 mm 3 mps 734 mmHg 73%
    20:00 +16°C° 0 mm 3 mps 735 mmHg 78%
    21:00 +16°C° 0 mm 3 mps 735 mmHg 82%
    22:00 +14°C° 0 mm 3 mps 735 mmHg 87%
    23:00 +14°C° 0 mm 3 mps 735 mmHg 88%

    24 September, Tuesday

    Time Temperature Precipitation Wind Pressure Humidity
    00:00 +14°C° 0 mm 3 mps 736 mmHg 89%
    01:00 +14°C° 0 mm 3 mps 736 mmHg 90%
    02:00 +14°C° 0 mm 3 mps 736 mmHg 91%
    03:00 +13°C° 0 mm 3 mps 736 mmHg 93%
    04:00 +13°C° 0 mm 3 mps 736 mmHg 95%
    05:00 +13°C° 0 mm 3 mps 736 mmHg 93%
    06:00 +13°C° 0 mm 3 mps 736 mmHg 92%
    07:00 +14°C° 0 mm 3 mps 736 mmHg 91%
    08:00 +14°C° 0 mm 3 mps 737 mmHg 89%
    09:00 +14°C° 0 mm 3 mps 737 mmHg 88%
    10:00 +16°C° 0 mm 3 mps 737 mmHg 86%
    11:00 +16°C° 0 mm 3 mps 737 mmHg 86%
    12:00 +16°C° 0 mm 3 mps 737 mmHg 85%
    13:00 +16°C° 0 mm 3 mps 737 mmHg 85%
    14:00 +17°C° 0 mm 3 mps 737 mmHg 83%
    15:00 +17°C° 0 mm 3 mps 737 mmHg 80%
    16:00 +18°C° 0 mm 3 mps 736 mmHg 78%
    17:00 +16°C° 0 mm 2 mps 736 mmHg 83%
    18:00 +15°C° 0 mm 2 mps 736 mmHg 88%
    19:00 +14°C° 0 mm 1 mps 736 mmHg 93%
    20:00 +14°C° 0 mm 1 mps 736 mmHg 93%
    21:00 +14°C° 0 mm 1 mps 736 mmHg 93%
    22:00 +13°C° 0 mm 1 mps 736 mmHg 94%
    23:00 +13°C° 0 mm 1 mps 736 mmHg 93%

    25 September, Wednesday

    Time Temperature Precipitation Wind Pressure Humidity
    00:00 +13°C° 0 mm 1 mps 736 mmHg 93%
    01:00 +13°C° 0 mm 1 mps 735 mmHg 93%
    02:00 +13°C° 0 mm 1 mps 735 mmHg 93%
    03:00 +13°C° 0 mm 1 mps 735 mmHg 92%
    04:00 +13°C° 0 mm 1 mps 734 mmHg 92%
    05:00 +14°C° 0 mm 1 mps 734 mmHg 90%
    06:00 +14°C° 0 mm 1 mps 734 mmHg 88%
    07:00 +15°C° 0 mm 1 mps 734 mmHg 86%
    08:00 +16°C° 0 mm 2 mps 734 mmHg 79%
    09:00 +17°C° 0 mm 3 mps 734 mmHg 73%
    10:00 +19°C° 0 mm 3 mps 734 mmHg 66%
    11:00 +18°C° 0 mm 3 mps 734 mmHg 69%
    12:00 +18°C° 0 mm 3 mps 734 mmHg 72%
    13:00 +17°C° 0 mm 3 mps 733 mmHg 75%
    14:00 +17°C° 0 mm 3 mps 733 mmHg 75%
    15:00 +18°C° 0 mm 3 mps 733 mmHg 75%
    16:00 +18°C° 0 mm 3 mps 733 mmHg 75%
    17:00 +17°C° 0.2 mm 3 mps 733 mmHg 80%
    18:00 +16°C° 0.2 mm 3 mps 734 mmHg 85%
    19:00 +14°C° 0.2 mm 3 mps 734 mmHg 90%
    20:00 +13°C° 0 mm 3 mps 734 mmHg 90%
    21:00 +12°C° 0 mm 3 mps 734 mmHg 91%
    22:00 +11°C° 0 mm 3 mps 734 mmHg 91%
    23:00 +12°C° 0 mm 2 mps 734 mmHg 92%
    Show more